Location: Belmont Heights
(33.7689°N, 118.1425°W)
Time: 14:00:46
(UTC+00:00)

Daily predictions for brighter satellites

Satellite Brightness Start Highest point End
(mag) Time Altitude Azimuth Time Altitude Azimuth Time Altitude Azimuth
USA 238 DEB 4.3 12:10:11 40° N 12:10:11 40° N 12:14:31 10° NNE
USA 238 4.3 12:10:15 41° N 12:10:15 41° N 12:14:37 10° NNE
Cosmos 2034 Rocket 4.1 12:08:28 51° NNE 12:10:03 72° E 12:16:19 10° SSE
Chandra Rocket (1) 4.5 12:15:51 11° SE 12:15:51 11° SE 12:15:59 10° SE
Cosmos 1943 Rocket 3.9 12:34:38 19° N 12:34:38 19° N 12:36:21 10° N
Tsikada Rocket 3.8 12:26:43 10° S 12:32:53 79° W 12:39:10 10° N
CZ-2C R/B 4.2 12:28:02 10° SE 12:32:55 34° ENE 12:37:44 10° N
Cosmos 2082 Rocket 3.4 12:45:15 25° SW 12:45:15 25° SW 12:48:05 10° SSW
Cosmos 1812 3.9 12:52:27 11° N 12:55:56 42° E 12:59:35 10° SSE
Okean 3 Rocket 4.4 12:52:12 10° S 12:56:35 53° E 13:01:01 10° NNE
SL-19 R/B 4.3 12:51:51 10° SSE 12:57:30 82° ENE 13:03:05 10° NNW
Cosmos 1241 Rocket 4.5 12:53:49 23° NNW 12:57:53 80° ENE 13:04:06 10° SSE
Cosmos 921 Rocket 3.7 12:54:48 16° N 12:58:14 54° ENE 13:02:36 10° SSE
DELTA 2 R/B (1) 3.5 12:56:59 45° W 12:58:39 71° NNW 13:04:12 10° ENE
MOS 1-B Rocket 4.0 12:52:29 10° SSE 12:59:11 87° ENE 13:05:05 10° NNW
Cosmos 2098 Rocket 2.7 12:56:09 10° S 12:59:38 81° E 13:04:01 10° N
Envisat 2.9 12:55:04 10° N 13:00:10 83° WNW 13:05:14 10° SSW
Cosmos 968 Rocket 4.3 13:03:36 31° NW 13:03:36 31° NW 13:06:59 10° N
CZ-3 R/B 4.0 12:50:44 10° SW 13:05:02 28° S 13:10:41 10° ESE
Cosmos 1766 Rocket 3.5 13:04:17 10° S 13:08:38 85° E 13:12:58 10° N
Meteor 2-3 Rocket 4.3 13:05:11 10° SW 13:10:13 33° WNW 13:15:21 10° NNW
CENTAUR R/B 3.9 13:12:13 19° NW 13:12:13 19° NW 13:16:27 10° N
Cosmos 1151 Rocket 3.4 13:07:37 10° N 13:11:59 65° E 13:16:18 10° SSE
Meteor 1-31 Rocket 2.6 13:10:33 10° N 13:14:26 71° WNW 13:18:18 10° SSW
Cosmos 1782 2.9 13:14:10 35° NW 13:15:24 50° W 13:19:12 10° SSW
Hubble Space Telescope 2.6 13:15:04 17° SW 13:16:26 20° SSW 13:19:28 10° SSE
Cosmos 1862 3.1 13:13:24 10° S 13:17:20 76° W 13:21:16 10° N
ATLAS 5 CENTAUR R/B 3.0 13:16:04 10° S 13:19:26 34° ESE 13:23:00 10° NE
Cosmos 1354 Rocket 4.0 13:16:27 10° SSW 13:21:42 84° ESE 13:27:01 10° NNE
CBERS 1 LM4 rocket 4.4 13:19:09 10° N 13:23:57 57° WNW 13:28:55 10° SSW
FALCON 9 R/B 4.1 13:05:30 21° W 13:24:01 89° N 13:30:54 10° E
SJ-12 4.4 13:20:27 10° N 13:24:16 37° WNW 13:28:04 10° SW
Cosmos 1328 Rocket 4.0 13:21:22 10° N 13:25:43 64° E 13:30:00 10° SSE
H-2A R/B 3.3 13:22:51 10° N 13:26:11 32° WNW 13:29:33 10° SW
COSMO-SKYMED 1 2.5 13:22:14 10° S 13:26:33 70° WSW 13:30:53 10° NNW
ADEOS 3.6 13:21:26 10° NNE 13:26:41 87° ESE 13:31:53 10° SSW
CZ-4C R/B 3.3 13:26:12 10° SSE 13:29:18 58° ENE 13:32:23 10° N
Gbstr 26 Del rocket 3.4 13:33:47 23° WNW 13:35:50 42° SW 13:40:06 10° SSE
CZ-2C R/B 3.4 13:31:02 10° NNE 13:35:57 69° ESE 13:41:05 10° S
ATLAS 3B R/B 3.3 13:32:17 10° SSW 13:38:33 57° ESE 13:45:04 10° NE
CZ-4B R/B 2.9 13:37:15 10° NNE 13:40:47 68° E 13:44:22 10° S
Cosmos 1408 Rocket 3.4 13:39:23 10° S 13:43:41 85° W 13:48:00 10° N
Cosmos 2369 Rocket 3.2 13:42:49 10° WSW 13:47:09 23° WNW 13:51:30 10° N
OAO 3 Rocket 4.5 13:43:59 13° W 13:47:34 30° SSW 13:51:52 10° SSE
Uosat 12 SS-18 rocket 4.4 13:44:05 10° SSW 13:48:51 77° WNW 13:54:46 10° NNE
Centaur D-1A AC-35 3.8 13:46:23 10° SW 13:49:54 27° S 13:53:21 10° ESE
Cosmos 1743 Rocket 4.3 13:47:00 10° S 13:51:19 57° E 13:55:37 10° NNE
H-2A R/B 4.2 13:56:30 10° NE 14:00:47 30° E 14:05:05 10° SSE
USA 215 3.5 13:55:11 10° SE 14:01:41 71° NE 14:08:10 10° NW
Cosmos 2279 Rocket 4.2 13:55:48 10° NNW 14:01:41 47° W 14:07:33 10° SSW
FAST Rocket 4.1 13:59:05 10° S 14:01:50 74° E 14:04:29 10° N
Nadezhda 4 Rocket 4.0 13:58:58 10° SSW 14:05:03 70° W 14:11:15 10° N
DMSP B5D2-2 4.1 14:00:47 10° S 14:06:00 80° WSW 14:11:14 10° NNW
Cosmos 1515 Rocket 3.5 14:02:05 10° N 14:06:26 81° W 14:10:45 10° S
SJ 16-02 1.3 14:03:24 10° SSW 14:07:45 70° WNW 14:12:08 10° N
SL-27 R/B 3.6 14:04:50 10° N 14:08:16 44° ENE 14:11:38 10° SE
Cosmos 1340 Rocket 2.7 14:05:01 10° S 14:08:55 82° W 14:12:54 10° N
CZ-2C R/B 3.7 14:08:35 10° SSW 14:13:08 26° W 14:17:39 10° NW
Cosmos 1777 Rocket 4.1 14:09:36 10° SSW 14:14:42 56° WNW 14:19:51 10° N
